#timestamp,LO_Frequency,Hit 
1500310815.3,286054076.7,N
1500310835.2,286054077.3,N
1500310855.9,286054077.5,N
1500310875.7,286054077.6,N
1500310895.6,286054079.1,N
1500310915.4,286054078.8,N
1500310935.2,286054078.5,N
1500310955.0,286054079.3,N
1500310956.0,286054079.3,N
1500310975.8,286054079.1,N
1500310995.6,286054079.0,N
1500311015.4,286054079.3,N
1500311035.3,286054076.5,N
1500311055.1,286054077.8,N
1500311075.8,286054078.0,N
1500311095.7,286054076.3,N
1500311115.5,286054076.1,N
1500311135.3,286054077.9,N
1500311155.2,286054077.3,N
1500311175.9,286054077.2,N
1500311195.7,286054075.3,N
1500311215.6,286054076.4,N
1500311235.4,286054073.7,N
1500311255.2,286054073.6,N
1500311275.1,286054074.2,N
1500311276.0,286054074.2,N
1500311295.8,286054073.4,N
1500311315.6,286054075.3,N
1500311335.5,286054075.5,N
1500311355.3,286054075.6,N
1500311375.1,286054079.6,N
1500311395.9,286054079.0,N
1500311415.7,286054075.7,N
1500311435.5,286054073.5,N
1500311455.4,286054074.7,N
1500311475.2,286054072.1,N
1500311495.0,286054073.5,N
1500311495.9,286054073.5,N
1500311515.8,286054074.1,N
1500311535.6,286054074.2,N
1500311555.4,286054074.1,N
1500311575.3,286054071.8,N
1500311595.1,286054072.0,N
1500311596.0,286054072.0,N
1500311615.8,286054073.0,N
1500311635.7,286054072.3,N
1500311655.5,286054074.7,N
1500311675.3,286054074.5,N
1500311695.1,286054074.8,N
1500311715.9,286054072.1,N
1500311735.7,286054072.0,N
1500311755.5,286054073.9,N
1500311775.4,286054076.3,N
1500311795.2,286054073.9,N
1500311815.0,286054074.1,N
1500311815.9,286054074.1,N
1500311835.8,286054074.5,N
1500311855.6,286054075.4,N
1500311875.4,286054076.4,N
1500311895.3,286054075.8,N
1500311915.1,286054076.3,N
1500311935.8,286054073.9,N
1500311955.7,286054076.4,N
1500311975.5,286054075.1,N
1500311995.3,286054078.0,N
1500312015.2,286054075.5,N
1500312035.9,286054075.5,N
1500312055.7,286054076.2,N
1500312075.6,286054073.7,N
1500312095.4,286054073.4,N
1500312115.2,286054074.2,N
1500312135.1,286054076.4,N
1500312136.0,286054076.4,N
1500312155.8,286054072.3,N
1500312175.6,286054072.9,N
1500312195.5,286054071.9,N
1500312215.3,286054072.1,N
1500312235.1,286054073.5,N
1500312255.8,286054077.6,N
1500312275.7,286054073.6,N
1500312295.5,286054072.6,N
1500312315.3,286054072.2,N
1500312335.2,286054072.2,N
1500312355.0,286054072.0,N
1500312355.9,286054072.0,N
1500312375.7,286054072.0,N
1500312395.6,286054072.2,N
1500312415.4,286054071.9,N
1500312435.2,286054072.2,N
1500312455.1,286054074.2,N
1500312456.0,286054074.2,N
1500312475.8,286054073.5,N
1500312495.6,286054071.8,N
1500312515.5,286054074.8,N
1500312535.3,286054073.7,N
1500312555.1,286054071.7,N
1500312575.9,286054073.5,N
1500312595.7,286054071.9,N
1500312615.5,286054073.2,N
1500312635.4,286054072.4,N
1500312655.2,286054072.5,N
1500312675.0,286054073.1,N
1500312675.9,286054073.1,N
1500312695.8,286054072.8,N
1500312715.6,286054070.2,N
1500312735.4,286054072.7,N
1500312755.3,286054072.7,N
1500312775.1,286054072.0,N
1500312776.0,286054072.0,N
1500312795.8,286054073.1,N
1500312815.7,286054072.0,N
1500312835.5,286054072.7,N
1500312855.3,286054074.0,N
1500312875.2,286054074.2,N
1500312895.9,286054075.1,N
1500312915.7,286054076.3,N
1500312935.6,286054073.3,N
1500312955.4,286054074.1,N
1500312975.2,286054072.1,N
1500312995.0,286054072.1,N
1500312996.0,286054072.1,N
1500313015.8,286054072.6,N
1500313035.6,286054071.8,N
1500313055.4,286054074.3,N
1500313075.3,286054074.6,N
1500313095.1,286054074.0,N
1500313115.8,286054074.1,N
1500313135.7,286054072.0,N
1500313155.5,286054074.8,N
1500313175.3,286054072.3,N
1500313195.2,286054072.3,N
1500313215.9,286054072.0,N
1500313235.7,286054070.6,N
1500313255.6,286054071.6,N
1500313275.4,286054070.9,N
1500313295.2,286054070.6,N
1500313315.1,286054072.7,N
1500313316.0,286054072.7,N
1500313335.8,286054071.7,N
1500313355.6,286054071.7,N
1500313375.4,286054071.7,N
1500313395.3,286054072.9,N
1500313415.1,286054072.8,N
1500313435.8,286054072.0,N
1500313455.7,286054072.5,N
1500313475.5,286054070.3,N
1500313495.3,286054073.1,N
1500313515.2,286054072.1,N
1500313535.0,286054070.3,N
1500313535.9,286054070.3,N
1500313555.7,286054074.7,N
1500313575.6,286054072.9,N
1500313595.4,286054070.3,N
1500313615.2,286054070.6,N
1500313635.1,286054073.1,N
1500313636.0,286054073.1,N
1500313655.8,286054071.7,N
1500313675.6,286054072.4,N
1500313695.5,286054072.5,N
1500313715.3,286054070.6,N
1500313735.1,286054070.8,N
1500313755.9,286054072.8,N
1500313775.7,286054070.6,N
1500313795.5,286054070.3,N
1500313815.4,286054070.7,N
1500313835.2,286054070.6,N
1500313855.0,286054070.4,N
1500313855.9,286054070.4,N
1500313875.8,286054072.5,N
1500313895.6,286054071.0,N
1500313915.4,286054071.9,N
1500313935.3,286054072.1,N
1500313955.1,286054074.4,N
1500313956.0,286054074.4,N
1500313975.8,286054072.6,N
1500313995.7,286054074.0,N
1500314015.5,286054073.8,N
1500314035.3,286054074.7,N
1500314055.2,286054071.9,N
1500314075.9,286054072.1,N
1500314095.7,286054076.4,N
1500314115.5,286054074.2,N
1500314135.4,286054074.5,N
1500314155.2,286054074.0,N
1500314175.0,286054071.9,N
1500314175.9,286054071.9,N
1500314195.8,286054074.4,N
1500314215.6,286054072.1,N
1500314235.4,286054073.6,N
1500314255.3,286054074.0,N
1500314275.1,286054074.5,N
1500314295.8,286054076.0,N
1500314315.7,286054073.3,N
1500314335.5,286054076.4,N
1500314355.3,286054073.4,N
1500314375.2,286054072.9,N
1500314395.9,286054072.9,N
